Tracking 19795 objects as of 20-Jul-2019
HD Live streaming from Space Station
objects crossing your sky now

COSMOS 1275 DEB

Track COSMOS 1275 DEB now!
10-day predictions


NORAD ID: 42191
Int'l Code: 1981-053TF
Perigee: 869.9 km
Apogee: 931.9 km
Inclination: 82.8 °
Period: 102.9 minutes
Semi major axis: 7271 km
RCS: Unknown
Launch date: June 4, 1981
Source: Commonwealth of Independent States (former USSR) (CIS)
Launch site: PLESETSK MISSILE AND SPACE COMPLEX (PKMTR)

Note: This is SATELLITE DEBRIS
aabbcc
Your satellite tracking list
Your tracking list is empty




NASA's NSSDC Master Catalog

Two Line Element Set (TLE):
1 42191U 81053TF  19200.64275603  .00000356  00000-0  22956-3 0  9990
2 42191  82.8269 320.7336 0042618 132.2244 228.2555 14.00001913868232
Source of the keplerian elements: AFSPC